Regional Weather Roundup
Issued by NWS Goodland, KS

Home | Current Version | Previous Version | Text Only | Print | Product List | Glossary On
Versions: 1 2 3 4 5 6 7 8 9 10 11 12 13 14 15 16 17 18 19 20 21 22 23 24 25 26 27 28 29 30 31 32 33 34 35 36 37 38 39 40 41 42 43 44 45 46 47 48 49 50
000
ASUS43 KGLD 291508
RWRGLD

GOODLAND FORECAST AREA HOURLY WEATHER ROUNDUP
NATIONAL WEATHER SERVICE GOODLAND KS
900 AM MDT THU SEP 29 2016

...OFFICIAL OBSERVATIONS...

CITY           SKY/WX    TMP DP  RH WIND       PRES   REMARKS
GOODLAND KS    SUNNY     56  43  61 S13       30.42R
HILL CITY KS   SUNNY     53  46  77 E3        30.47R
IMPERIAL NEB   SUNNY     54  41  61 SE10      30.42R
MCCOOK NEB     SUNNY     49  42  77 E5        30.45R
AKRON CO       SUNNY     61  42  49 S17       30.38S
BURLINGTON CO  SUNNY     58  38  47 S20       30.41S
LIMON CO       SUNNY     54  41  61 S15G21    30.43S
$$

...UNOFFICIAL OBSERVATIONS...

CITY           SKY/WX    TMP DP  RH WIND       PRES   REMARKS
COLBY KS       SUNNY     59  46  63 S10       30.45S
LENORA KS        N/A     54  32  43 MISG        N/A
NORTON KS      SUNNY     54  43  66 E5        30.46R
SHARON SPRINGS   N/A     57  45  65 S12         N/A
KIT CARSON CO    N/A     57  39  52 MISG        N/A
$$



USA.gov is the U.S. government's official web portal to all federal, state and local government web resources and services.